Weather History for KP60 - August, 2013

Change the Weather History Date:

Thursday, August 22, 2013

  Actual Average Record
Temperature  
Mean Temperature 58 °F 54 °F  
Max Temperature 71 °F 71 °F 83 °F (2009)
Min Temperature 44 °F 38 °F 27 °F (2008)
Degree Days  
Heating Degree Days 7 11  
Month to date heating degree days 162 197  
Since 1 June heating degree days 793 973  
Since 1 July heating degree days 360 480  
Cooling Degree Days 0 0  
Month to date cooling degree days 0 0  
Year to date cooling degree days 0 0  
Since 1 June cooling degree days 0 0  
Growing Degree Days 6 (Base 50)    
Moisture  
Dew Point 49 °F    
Average Humidity 78    
Maximum Humidity 100    
Minimum Humidity 55    
Precipitation  
Precipitation 0.00 in 0.05 in 0.34 in (2004)
Month to date precipitation 0.68 1.02  
Year to date precipitation 12.03 13.57  
Sea Level Pressure  
Sea Level Pressure 30.16 in    
Wind  
Wind Speed 1 mph (ESE)    
Max Wind Speed 5 mph    
Max Gust Speed 8 mph    
T = Trace of Precipitation, MM = Missing Value Source: NWS Daily Summary

Daily Weather History Graph

Daily Weather History Graph

Search for Another Location

Airport or City:

Trip Planner

Search our weather history database for the weather conditions in past years. The results will help you decide how hot, cold, wet, or windy it might be!

Date:

Astronomy

Aug. 22, 2013 Rise Set
Actual Time 6:32 AM MDT 8:15 PM MDT
Civil Twilight 6:02 AM MDT 8:45 PM MDT
Nautical Twilight 5:24 AM MDT 9:23 PM MDT
Astronomical Twilight 4:43 AM MDT 10:03 PM MDT
Moon 8:52 PM MDT (8/22) 8:32 AM MDT (8/22)
Length of Visible Light 14h 43m
Length of Day
13h 42m
Waning Gibbous, 96% of the Moon is Illuminated
Aug 22
Waning Gibbous
Aug 28
Last Quarter
Sep 5
New
Sep 12
First Quarter
Sep 19
Full

Hourly Weather History & Observations

Time (MDT) Temp. Dew Point Humidity Pressure Visibility Wind Dir Wind Speed Gust Speed Precip Events Conditions
12:56 AM 51.1 °F 51.1 °F 100% 30.17 in - Calm Calm - N/A   Unknown
1:56 AM 51.1 °F 50.0 °F 96% 30.12 in - Calm Calm - N/A   Unknown
2:56 AM 50.0 °F 48.9 °F 96% 30.13 in - Calm Calm - N/A   Unknown
3:56 AM 48.0 °F 46.9 °F 96% 30.14 in - Calm Calm - N/A   Unknown
4:56 AM 45.0 °F 45.0 °F 100% 30.20 in - Calm Calm - N/A   Unknown
5:56 AM 44.1 °F 43.0 °F 96% 30.25 in - Calm Calm - N/A   Unknown
6:56 AM 44.1 °F 44.1 °F 100% 30.25 in - Calm Calm - N/A   Unknown
7:56 AM 48.0 °F 46.9 °F 96% 30.25 in - Calm Calm - N/A   Unknown
8:56 AM 57.0 °F 51.1 °F 81% 30.22 in - Calm Calm - N/A   Unknown
9:56 AM 57.9 °F 51.1 °F 78% 30.21 in - ESE 3.5 mph - N/A   Unknown
10:56 AM 62.1 °F 50.0 °F 65% 30.19 in - East 4.6 mph - N/A   Unknown
11:56 AM 64.0 °F 51.1 °F 63% 30.16 in - ESE 4.6 mph - N/A   Unknown
12:56 PM 66.9 °F 52.0 °F 59% 30.13 in - East 6.9 mph - N/A   Unknown
1:56 PM 68.0 °F 55.9 °F 65% 30.11 in - Variable 3.5 mph - 0.03 in   Unknown
2:56 PM 63.0 °F 51.1 °F 65% 30.14 in - Calm Calm - N/A   Unknown
5:56 PM 68.0 °F 51.1 °F 55% 30.07 in - ESE 5.8 mph - N/A   Unknown
7:56 PM 60.1 °F 53.1 °F 78% 30.09 in - Calm Calm - N/A   Unknown
8:56 PM 54.0 °F 51.1 °F 90% 30.14 in - Calm Calm - N/A   Unknown
9:56 PM 51.1 °F 48.9 °F 92% 30.17 in - Calm Calm - N/A   Unknown
10:56 PM 50.0 °F 48.0 °F 93% 30.13 in - Calm Calm - N/A   Unknown
11:56 PM 48.0 °F 46.9 °F 96% 30.09 in - Calm Calm - N/A   Unknown